FW7500 Weather Reports


Display with metric or nautical units.
time (UTC)temp
F
wind
direction
speed
MPH
gust
MPH
rain 1hr
in
rain 24hr
in
rain mn
in
humidity
%
barometer
mb
20260504044551 54 360 5.0 9.0 0.00 0.00 0.00 56 1013.7
20260504043108 54 198 4.0 9.0 0.00 0.00 0.00 55 1013.8
20260504041553 54 360 6.0 10.0 0.00 0.00 0.00 54 1013.9
20260504040113 55 360 5.0 11.0 0.00 0.00 0.00 53 1014.1
20260504034546 55 360 6.0 10.0 0.00 0.00 0.00 53 1014.2
20260504033049 55 360 6.0 9.0 0.00 0.00 0.00 52 1014.4
20260504031551 55 360 6.0 13.0 0.00 0.00 0.00 52 1014.2
20260504030048 56 360 6.0 12.0 0.00 0.00 0.00 51 1014.3
20260504024554 56 360 6.0 10.0 0.00 0.00 0.00 50 1014.5
20260504023057 57 360 6.0 12.0 0.00 0.00 0.00 49 1014.5
20260504021551 57 360 8.0 15.0 0.00 0.00 0.00 49 1013.9
20260504020048 56 360 7.0 17.0 0.00 0.00 0.00 49 1014.3
20260504014604 55 360 7.0 13.0 0.00 0.00 0.00 54 1013.8
20260504013049 54 360 6.0 9.0 0.00 0.00 0.00 59 1013.6
20260504011552 54 360 4.0 7.0 0.00 0.00 0.00 60 1014.4
20260504010052 55 360 2.0 6.0 0.00 0.00 0.00 56 1014.5
20260504004551 55 360 4.0 7.0 0.00 0.00 0.00 56 1014.3
20260504003055 56 360 2.0 4.0 0.00 0.00 0.00 51 1014.3
20260504001604 57 360 2.0 6.0 0.00 0.00 0.00 47 1013.9
20260504000108 57 360 2.0 10.0 0.00 0.00 0.00 45 1014.2
20260503234549 58 360 5.0 14.0 0.00 0.00 0.00 42 1013.9
20260503233045 59 360 5.0 12.0 0.00 0.00 0.00 40 1014.0
20260503231543 59 360 6.0 14.0 0.00 0.00 0.00 39 1014.3
20260503230050 59 360 8.0 14.0 0.00 0.00 0.00 38 1014.5
20260503224547 59 360 7.0 14.0 0.00 0.00 0.00 38 1015.1
20260503223046 60 360 10.0 17.0 0.00 0.00 0.00 36 1015.1
20260503221553 61 253 9.0 14.0 0.00 0.00 0.00 36 1015.5
20260503220050 61 360 7.0 11.0 0.00 0.00 0.00 37 1015.7
20260503214552 61 245 7.0 13.0 0.00 0.00 0.00 39 1015.7
20260503213052 61 287 8.0 17.0 0.00 0.00 0.00 35 1015.9
20260503211549 61 301 8.0 17.0 0.00 0.00 0.00 33 1015.8
20260503210051 61 246 6.0 14.0 0.00 0.00 0.00 35 1015.9
20260503204550 61 360 8.0 19.0 0.00 0.00 0.00 35 1016.0
20260503203049 61 360 7.0 16.0 0.00 0.00 0.00 35 1016.0
20260503201548 61 360 10.0 16.0 0.00 0.00 0.00 35 1016.4
20260503200058 61 360 9.0 19.0 0.00 0.00 0.00 38 1016.4
20260503194557 61 299 6.0 14.0 0.00 0.00 0.00 35 1017.0
20260503193117 61 254 8.0 18.0 0.00 0.00 0.00 35 1017.5
20260503191605 60 360 7.0 17.0 0.00 0.00 0.00 37 1017.6
20260503190053 60 360 7.0 22.0 0.00 0.00 0.00 38 1017.6
20260503184551 60 257 4.0 16.0 0.00 0.00 0.00 43 1018.1
20260503183108 60 360 8.0 19.0 0.00 0.00 0.00 38 1018.1
20260503181618 60 176 8.0 14.0 0.00 0.00 0.00 39 1018.4
20260503180049 59 278 8.0 14.0 0.00 0.00 0.00 40 1018.6
20260503174556 59 185 5.0 14.0 0.00 0.00 0.00 42 1018.8
20260503173056 59 263 7.0 16.0 0.00 0.00 0.00 39 1019.2
20260503171556 57 274 6.0 18.0 0.00 0.00 0.00 39 1019.1
20260503100104 35 360 2.0 3.0 0.00 0.00 0.00 78 1019.3
20260503081549 34 0 0.0 0.0 0.00 0.00 0.00 81 1019.2
20260503071543 33 0 0.0 0.0 0.00 0.00 0.00 86 1019.1
20260503070110 33 0 0.0 0.0 0.00 0.00 0.00 86 1019.1
20260503060113 34 0 0.0 0.0 0.00 0.00 0.00 84 1019.4